User: anonymous   Login
Location: Wangen+im+Allg�u
(47.7098°N, 9.8383°E)
Time: 21:44:51
(UTC+02:00)
Language:

ISS - Orbit

View from above orbital plane
View from above orbital plane
View from above satellite
View from above satellite

Ground track
Ground track

The orbit data is extracted from the following two-line orbital elements,

1 25544U 98067A   18177.52382121  .00016717  00000-0  10270-3 0  9016
2 25544  51.6380 332.1703 0003810 229.4612 130.6209 15.53978055 39968
Epoch (UTC): 26 June 2018 12:34:18
Eccentricity: 0.0003810
inclination: 51.6380°
perigee height: 402 km
apogee height: 408 km
right ascension of ascending node: 332.1703°
argument of perigee: 229.4612°
revolutions per day: 15.53978055
mean anomaly at epoch: 130.6209°
orbit number at epoch: 3996

The dashed part of the orbit path shows where the satellite is in the earth's shadow,  

DLR